Gainesville, GA

11:27 PM EDT on September 28, 2016 (GMT -0400)
Gilmer Memorial

Weather History for KGVL - March, 2012

Change the Weather History Date:

Saturday, March 17, 2012

  Actual Average Record
Temperature  
Mean Temperature 68 °F 53 °F  
Max Temperature 78 °F 63 °F 85 °F (1945)
Min Temperature 59 °F 43 °F 19 °F (1970)
Degree Days  
Heating Degree Days 0 12  
Month to date heating degree days 243  
Since 1 July heating degree days 2707  
Cooling Degree Days 3 0  
Month to date cooling degree days 0  
Year to date cooling degree days 0  
Growing Degree Days 18 (Base 50)    
Moisture  
Dew Point 55 °F    
Average Humidity 68    
Maximum Humidity 93    
Minimum Humidity 47    
Precipitation  
Precipitation 0.21 in 0.18 in 4.80 in (1990)
Month to date precipitation 3.17  
Year to date precipitation 13.07  
Sea Level Pressure  
Sea Level Pressure 30.20 in    
Wind  
Wind Speed 4 mph (North)    
Max Wind Speed 10 mph    
Max Gust Speed -    
Visibility 9 miles    
Events Rain    
T = Trace of Precipitation, MM = Missing Value Source: NWS Daily Summary

Daily Weather History Graph

Daily Weather History Graph

Search for Another Location

Airport or City:

Trip Planner

Search our weather history database for the weather conditions in past years. The results will help you decide how hot, cold, wet, or windy it might be!

Date:

Astronomy

Mar. 17, 2012 Rise Set
Actual Time 7:42 AM EDT 7:45 PM EDT
Civil Twilight 7:17 AM EDT 8:10 PM EDT
Nautical Twilight 6:48 AM EDT 8:39 PM EDT
Astronomical Twilight 6:18 AM EDT 9:08 PM EDT
Moon 4:31 AM EDT (3/17) 3:18 PM EDT (3/17)
Length of Visible Light 12h 52m
Length of Day
12h 02m
Waning Crescent, 23% of the Moon is Illuminated
Mar 17
Waning Crescent
Mar 22
New
Mar 30
First Quarter
Apr 6
Full
Apr 13
Last Quarter

Hourly Weather History & Observations

Time (EDT) Temp. Dew Point Humidity Pressure Visibility Wind Dir Wind Speed Gust Speed Precip Events Conditions
12:53 AM 64.0 °F 55.0 °F 73% 30.18 in 10.0 mi East 3.5 mph - N/A   Clear
1:53 AM 62.1 °F 55.0 °F 78% 30.19 in 10.0 mi NE 3.5 mph - N/A   Mostly Cloudy
2:53 AM 63.0 °F 53.1 °F 70% 30.18 in 10.0 mi East 3.5 mph - N/A   Clear
3:53 AM 62.1 °F 53.1 °F 72% 30.17 in 10.0 mi ESE 3.5 mph - N/A   Clear
4:53 AM 62.1 °F 53.1 °F 72% 30.18 in 10.0 mi Calm Calm - N/A   Mostly Cloudy
5:53 AM 61.0 °F 54.0 °F 78% 30.19 in 10.0 mi Calm Calm - N/A   Mostly Cloudy
6:53 AM 60.1 °F 55.0 °F 83% 30.22 in 10.0 mi North 10.4 mph - 0.00 in   Overcast
7:53 AM 60.1 °F 55.0 °F 83% 30.25 in 10.0 mi North 4.6 mph - N/A   Mostly Cloudy
8:53 AM 59.0 °F 57.0 °F 93% 30.26 in 10.0 mi Calm Calm - 0.02 in   Overcast
9:53 AM 61.0 °F 57.0 °F 87% 30.26 in 6.0 mi NNW 6.9 mph - 0.02 in Rain Light Rain
10:53 AM 60.1 °F 57.0 °F 90% 30.26 in 6.0 mi NNE 8.1 mph - 0.13 in Rain Light Rain
11:53 AM 61.0 °F 57.0 °F 87% 30.28 in 4.0 mi NNW 8.1 mph - 0.03 in Rain Light Rain
12:53 PM 64.9 °F 57.9 °F 78% 30.25 in 10.0 mi NNW 5.8 mph - 0.01 in   Overcast
1:53 PM 69.1 °F 59.0 °F 70% 30.23 in 10.0 mi NW 5.8 mph - N/A   Overcast
2:53 PM 75.0 °F 55.9 °F 51% 30.20 in 10.0 mi NNW 5.8 mph - N/A   Mostly Cloudy
3:53 PM 75.9 °F 55.9 °F 50% 30.17 in 10.0 mi Variable 3.5 mph - N/A   Clear
4:53 PM 77.0 °F 55.9 °F 48% 30.15 in 10.0 mi WSW 9.2 mph - N/A   Clear
5:53 PM 77.0 °F 55.0 °F 47% 30.14 in 10.0 mi NNW 5.8 mph - N/A   Scattered Clouds
6:53 PM 77.0 °F 55.0 °F 47% 30.15 in 10.0 mi Calm Calm - N/A   Scattered Clouds
7:53 PM 73.0 °F 55.0 °F 53% 30.17 in 10.0 mi Calm Calm - N/A   Clear
8:53 PM 72.0 °F 54.0 °F 53% 30.18 in 10.0 mi Calm Calm - N/A   Clear
9:53 PM 72.0 °F 54.0 °F 53% 30.19 in 10.0 mi SSE 3.5 mph - N/A   Partly Cloudy
10:53 PM 70.0 °F 55.0 °F 59% 30.21 in 10.0 mi South 4.6 mph - N/A   Partly Cloudy
11:53 PM 70.0 °F 55.0 °F 59% 30.21 in 10.0 mi South 4.6 mph - N/A   Mostly Cloudy